EHI
0 0 0 0 0 0 0 0 0 0 0 0 1 2 4 7 9 13 24 39 52 61 68 72 72 70 73 78 79 79 79 77 73 66 61 58 58 54 47 44 42 32 20 16
0 0 0 0 0 0 0 0 0 0 0 0 0 1 3 5 8 12 23 37 50 62 70 75 76 75 76 80 82 80 79 77 72 67 63 60 58 54 49 48 46 35 24 20
0 0 0 0 0 0 0 0 0 0 0 0 0 1 3 4 6 12 20 33 46 60 72 80 81 80 81 82 83 81 79 76 72 68 62 58 57 52 50 53 48 37 28 24
0 0 0 0 0 0 0 0 0 0 0 0 0 1 3 5 7 11 18 27 40 54 70 82 84 82 81 81 80 80 80 76 70 65 59 54 51 47 48 50 45 35 26 21
0 0 0 0 0 0 0 0 0 0 0 0 0 0 2 4 7 10 15 22 32 46 64 78 83 81 79 78 77 78 79 75 66 59 56 52 46 43 45 46 42 32 22 17
0 0 0 0 0 0 0 0 0 0 0 0 0 0 1 3 5 7 11 16 25 39 55 70 78 80 78 76 74 75 77 74 64 57 54 51 46 45 46 46 41 31 20 15
0 0 0 0 0 0 0 0 0 0 0 0 0 1 3 3 3 4 8 13 20 32 46 61 72 79 80 78 75 74 74 71 64 57 54 52 48 48 47 43 37 28 18 14
0 0 0 0 0 0 0 0 0 0 0 0 1 2 4 4 3 3 7 12 17 26 40 54 67 76 79 79 76 73 71 69 64 58 56 55 52 48 45 41 36 28 19 15
0 0 0 0 0 0 0 0 0 0 0 0 1 2 4 5 4 3 6 10 14 22 35 49 60 68 73 74 72 69 68 67 64 60 56 54 53 50 46 42 38 32 25 20
0 0 0 0 0 0 0 0 0 0 0 0 0 2 6 8 6 3 5 8 13 21 32 43 51 58 63 65 66 65 65 64 62 59 54 52 54 53 48 43 40 37 33 31
0 0 0 0 0 0 0 0 0 0 0 0 1 2 6 8 6 4 7 11 14 22 32 39 43 47 52 57 59 61 62 60 58 55 52 51 53 52 47 42 41 42 43 42
0 0 0 0 0 0 0 0 0 0 0 0 1 3 5 5 5 7 12 18 23 29 38 42 42 43 46 50 56 58 58 56 54 52 50 48 48 49 47 43 42 44 46 45
0 0 0 0 0 0 0 0 0 0 0 0 1 3 6 6 7 11 17 24 29 35 42 46 47 47 47 50 55 56 56 54 51 49 46 43 44 48 49 44 41 41 41 40
0 0 0 0 0 0 0 0 0 0 0 0 1 5 8 8 9 13 19 23 27 33 39 45 51 53 52 53 54 54 52 51 50 47 44 41 43 48 49 45 40 37 35 34
0 0 0 0 0 0 0 0 0 0 0 0 3 7 10 10 12 16 19 21 25 30 35 43 50 54 53 53 53 51 49 50 50 48 47 44 43 46 47 43 38 34 32 30
0 0 0 0 0 0 0 0 0 0 0 1 5 9 10 12 17 19 19 21 25 29 34 41 48 52 51 49 50 49 49 51 52 51 49 46 43 43 43 39 35 32 30 29
2 2 1 0 0 0 0 0 0 2 3 5 9 12 13 17 21 22 21 22 24 25 31 39 47 52 50 47 48 49 49 48 50 49 45 43 42 40 36 33 33 34 32 31
2 3 2 0 0 0 1 1 3 6 10 13 15 18 20 23 24 24 24 26 25 26 31 39 45 48 47 44 44 45 43 41 41 41 39 38 38 35 31 30 33 35 34 33
1 2 1 0 0 0 2 4 6 11 14 15 19 23 23 23 23 24 27 29 29 29 33 37 39 41 44 44 42 39 36 33 32 32 33 34 34 32 30 30 32 34 33 30
1 1 0 0 0 1 3 6 8 11 13 15 20 24 23 20 22 24 26 28 30 31 31 31 32 38 45 48 43 34 30 30 28 28 28 30 32 32 33 33 33 31 29 26
0 0 0 0 0 2 7 11 14 16 19 21 23 25 24 24 26 26 25 27 29 29 27 27 32 40 46 48 43 35 32 31 28 25 26 30 32 32 34 37 35 28 23 21
3 3 2 1 2 7 14 19 22 27 30 28 27 27 27 27 27 27 27 27 28 28 27 29 35 40 40 39 38 35 34 33 29 27 28 30 31 31 33 36 34 25 19 17
7 8 6 4 7 14 22 26 27 29 30 29 30 30 28 24 22 25 28 28 26 26 27 29 31 32 30 29 30 31 31 30 30 31 32 31 30 30 31 30 27 20 14 12
7 8 8 7 9 14 21 24 24 22 23 26 30 30 25 20 20 24 26 26 24 24 24 23 24 24 23 23 23 25 26 25 26 30 31 29 26 26 25 23 19 13 10 8
7 7 7 8 8 9 13 16 16 17 19 22 24 23 21 20 20 22 22 21 21 21 20 19 19 20 22 22 21 23 26 25 23 25 25 23 20 19 19 17 12 8 6 5
9 7 7 7 7 7 8 11 13 16 18 20 19 18 19 20 20 19 19 18 18 18 18 17 17 19 21 22 21 23 27 26 23 23 22 18 16 16 16 14 9 5 3 3
Wind_Speed
14 14 16 18 19 17 14 12 13 12 11 12 12 11 11 13 12 12 12 12 12 12 15 15 14 14 13 12 12 11 10 9 7 6 6 5 4 3 3 4 6 6 5 5
14 19 19 18 17 18 16 15 13 9 9 10 10 11 11 12 13 12 13 13 15 14 14 14 14 14 14 13 12 11 10 10 9 6 4 4 4 4 4 3 5 6 5 5
20 15 19 19 17 17 16 15 14 9 8 9 10 11 9 9 11 12 12 13 15 16 16 15 15 14 15 14 14 12 11 11 10 8 5 4 4 3 4 4 5 5 6 5
19 18 16 18 18 17 15 15 12 9 9 9 11 9 9 10 11 11 11 12 13 14 16 16 16 15 15 14 13 11 11 10 9 9 8 8 7 6 5 5 4 5 5 5
15 17 17 17 17 16 14 12 12 11 11 11 11 11 7 9 10 11 11 12 13 14 15 16 16 15 14 14 14 12 11 10 10 9 8 7 6 5 4 5 5 5 5 5
17 15 15 16 15 15 13 12 11 11 11 13 12 12 6 7 9 9 11 12 12 13 14 15 15 14 13 13 13 13 12 11 11 10 9 8 7 6 6 6 6 5 4 4
18 17 16 14 15 15 15 11 8 9 10 12 12 11 5 8 10 10 10 11 11 11 13 14 15 15 14 13 13 13 13 12 11 11 10 9 8 7 6 6 6 6 5 5
17 17 18 16 16 14 16 15 11 8 9 8 8 9 5 9 10 9 9 9 10 10 12 13 14 14 14 14 12 13 13 12 12 11 10 8 7 6 6 7 6 6 4 5
12 14 17 17 15 16 17 16 16 11 8 6 6 6 6 8 8 8 9 9 10 9 10 11 12 12 12 12 12 13 13 12 12 11 10 9 9 8 7 7 6 5 4 5
10 11 14 16 15 18 17 15 11 10 8 9 7 8 6 7 7 8 9 8 8 8 9 10 10 11 10 11 11 12 12 12 11 11 10 10 9 8 6 6 7 6 6 5
15 11 13 16 18 18 17 17 13 9 9 9 5 4 3 5 7 8 8 9 8 9 9 10 9 8 10 11 11 11 11 11 11 10 10 8 9 8 8 7 7 7 6 6
14 10 10 15 16 16 16 16 15 11 9 9 5 2 1 3 5 6 7 8 7 7 8 9 9 9 9 9 11 11 10 11 11 10 9 8 8 8 8 8 7 7 6 6
10 8 9 11 14 17 16 17 16 13 9 9 7 4 3 2 4 6 8 7 7 6 7 7 7 7 8 9 9 10 10 10 10 10 10 9 9 9 8 8 7 7 7 7
9 9 11 12 10 11 14 16 16 14 10 10 8 6 7 5 4 4 8 8 8 8 7 7 6 6 6 7 7 8 8 8 9 9 9 9 8 8 8 7 7 8 8 7
10 13 13 12 10 12 14 15 16 16 14 12 6 7 7 5 4 2 5 7 7 7 7 7 6 6 5 6 6 7 7 7 7 8 8 8 8 7 7 7 8 7 7 8
8 9 10 12 13 14 14 17 17 16 15 14 8 5 5 4 4 6 5 6 6 5 5 6 7 7 7 6 6 6 6 6 6 6 7 7 7 7 7 8 7 7 7 6
8 8 9 11 12 11 16 16 16 16 15 12 9 6 5 4 4 5 4 4 5 4 4 5 6 5 5 6 5 5 5 5 5 5 4 5 7 7 7 8 7 7 6 6
8 7 7 10 10 14 11 12 14 13 7 6 5 7 6 5 4 4 5 5 5 3 4 4 5 4 4 4 5 4 5 5 4 4 4 5 6 6 6 6 6 6 5 5
11 8 8 9 11 11 9 8 8 8 6 4 5 7 8 7 6 7 7 6 6 5 5 4 4 5 4 4 4 5 5 5 5 4 4 5 5 6 6 6 5 5 4 4
11 8 8 8 9 10 5 6 6 5 5 3 5 7 9 8 4 5 5 7 7 7 5 4 4 6 5 4 4 4 5 5 5 5 4 4 4 4 5 4 5 4 4 4
12 11 12 10 9 5 3 7 6 8 4 3 5 5 6 6 7 7 6 8 7 7 6 5 5 5 5 4 4 3 3 3 3 3 4 4 4 4 4 4 4 4 4 3
8 9 10 9 10 4 6 5 2 3 6 6 6 7 9 11 11 10 8 7 7 6 6 6 6 6 5 4 4 3 2 2 2 2 3 3 3 4 4 4 4 3 3 3
2 1 2 1 1 2 3 4 5 5 7 7 7 9 10 11 11 10 9 7 7 6 6 6 7 7 5 4 3 3 2 2 2 2 3 3 3 2 3 4 4 3 3 2
0 1 3 3 2 3 6 8 7 7 8 7 9 9 9 11 11 10 8 7 7 6 6 5 6 6 5 4 4 3 2 1 2 3 3 3 3 4 4 3 3 3 2 1
3 2 1 3 2 3 6 6 7 7 9 9 10 9 10 10 10 9 8 7 7 6 6 6 6 5 4 4 3 2 2 1 1 2 2 4 5 5 5 6 5 4 4 2
3 2 1 2 3 2 4 4 5 6 8 8 9 9 10 10 10 9 8 7 6 6 6 6 5 5 4 4 3 3 2 2 1 1 2 3 4 5 6 6 6 10 8 9
Wind_Direction
200 216 220 220 224 236 242 241 234 226 207 205 215 214 198 205 205 194 182 175 179 180 173 168 169 169 167 160 162 166 167 162 164 169 172 175 172 164 159 161 155 165 177 175
198 222 226 227 225 232 247 249 244 224 208 209 224 225 208 210 205 196 187 181 177 176 173 169 170 172 169 166 166 167 171 169 173 172 172 172 165 171 171 170 159 172 178 178
214 217 219 229 228 228 235 240 239 227 210 216 235 241 216 217 213 197 190 183 179 177 174 172 174 177 175 173 174 175 175 173 177 169 171 172 164 178 173 161 166 181 180 186
226 231 216 219 226 226 233 234 239 233 230 228 225 237 214 210 216 201 192 185 183 179 174 173 176 178 179 177 176 172 173 174 175 173 182 181 182 186 181 164 170 175 183 190
221 223 224 219 223 226 235 236 235 234 238 246 237 242 219 194 208 207 198 189 185 181 176 175 177 178 179 178 175 175 172 176 177 183 186 187 193 187 169 161 160 170 180 198
233 222 222 223 224 226 233 238 242 238 241 239 239 247 219 190 196 219 208 190 183 178 173 171 175 172 177 179 175 174 172 177 180 185 189 193 195 186 173 169 164 175 178 195
228 228 219 219 218 216 222 221 216 222 230 239 234 241 210 178 178 198 204 184 177 173 169 171 171 171 174 179 176 172 172 178 182 186 192 195 193 187 184 180 178 183 182 188
215 219 215 211 215 211 215 219 219 220 226 236 241 235 210 170 171 184 180 170 165 172 167 169 168 169 174 178 176 172 174 178 182 186 190 189 187 189 193 193 190 191 190 186
217 220 209 207 210 218 213 222 230 241 255 244 235 230 210 169 166 169 164 161 161 164 162 163 164 167 172 175 175 175 173 177 182 185 186 188 189 196 195 187 196 189 187 186
240 227 212 202 206 218 221 221 230 236 254 255 228 216 205 178 181 173 166 157 152 161 161 158 159 164 169 170 169 172 172 175 180 183 188 191 192 193 190 192 195 190 187 179
239 241 216 203 207 211 215 218 228 238 244 253 237 211 200 185 198 183 165 153 156 165 159 154 155 163 170 169 168 170 171 173 178 184 189 188 184 187 189 196 194 187 181 175
227 240 230 210 210 223 218 222 223 234 242 260 264 248 181 196 212 179 150 140 144 152 147 150 156 165 170 171 171 168 171 175 178 181 184 189 187 187 191 195 192 184 181 183
220 237 233 219 210 215 223 220 226 231 244 252 253 189 162 180 234 171 142 135 139 151 142 142 149 158 166 169 172 167 172 175 176 177 182 187 191 189 191 191 186 184 185 189
228 232 242 231 215 208 225 230 229 228 231 238 238 178 163 190 217 164 141 146 154 146 144 144 144 150 156 156 160 164 171 175 173 175 180 186 192 189 189 187 186 187 187 189
226 231 238 250 244 235 226 234 232 231 234 239 224 180 179 183 173 172 152 145 145 144 149 146 146 145 148 153 159 164 169 171 173 174 181 186 189 186 186 187 190 188 187 191
229 244 239 246 247 237 237 233 233 232 232 234 220 191 180 165 169 159 148 141 139 143 148 148 150 152 156 159 164 162 165 164 166 175 183 182 185 186 186 185 186 184 186 188
226 242 243 244 245 237 235 230 230 229 227 227 224 184 163 156 140 133 139 144 138 147 151 155 146 140 146 157 159 159 155 154 162 172 179 178 183 187 186 185 178 179 181 181
248 238 234 246 240 236 235 232 234 228 222 218 171 143 140 138 127 106 99 100 102 103 110 118 123 126 135 142 140 144 145 146 158 170 186 181 183 184 180 181 178 173 171 177
227 223 231 237 242 245 240 231 228 211 200 197 162 140 144 141 110 85 75 86 84 91 96 98 111 120 112 120 131 142 145 152 165 178 185 181 181 178 175 177 176 172 174 178
215 207 227 237 241 239 244 289 267 223 191 162 148 149 156 152 146 103 82 88 82 81 83 92 98 105 102 99 117 141 160 163 171 176 175 162 163 168 166 167 167 166 170 179
201 204 218 233 240 252 310 290 247 211 169 137 136 127 128 121 101 104 91 84 82 77 75 84 87 93 98 101 111 136 147 148 161 160 151 142 150 154 151 147 148 152 163 169
207 208 210 227 231 241 334 330 324 89 99 98 98 101 99 100 103 101 91 84 83 78 75 84 85 81 80 89 105 109 107 115 134 139 141 142 149 166 153 140 145 153 164 166
217 232 145 268 213 74 37 63 47 77 89 92 97 101 106 107 102 97 91 82 76 75 71 78 89 83 78 78 85 92 80 79 104 120 131 139 145 138 123 138 151 155 158 171
158 48 136 127 129 77 67 64 53 70 84 87 92 93 100 102 101 95 86 79 71 67 70 76 86 87 79 71 67 63 64 80 111 121 131 143 135 112 99 98 102 107 112 140
345 348 128 141 145 80 59 61 65 74 85 86 89 88 93 95 92 88 83 74 66 64 68 72 79 84 80 72 67 51 53 59 128 142 149 136 122 109 95 81 58 74 69 71
336 324 233 169 168 133 115 88 80 92 95 93 92 91 91 92 93 88 82 74 70 67 65 68 71 78 77 71 61 49 57 71 78 114 129 129 124 121 117 109 90 61 70 71